Location: Overspoor
(51.4747°N, 5.6641°E)
Time: 11:46:39
(UTC+02:00)

NANOSAT C BR1 - Pass Details

Date: 07 July 2022
Orbit: 584 x 599 km, 98.0° (Epoch: 07 August)

Event Time Altitude Azimuth Distance (km) Brightness Sun altitude
Rises 04:01:54 0° 13° (NNE) 2,855 ? -9.8°
Reaches altitude 10° 04:04:05 10° 13° (NNE) 1,950 ? -9.7°
Maximum altitude 04:08:20 85° 286° (WNW) 610 ? -9.3°
Enters shadow 04:12:26 11° 198° (SSW) 1,895 ? -8.9°
